Richmond Hanover County, VA

4:04 PM EDT on October 23, 2017 (GMT -0400)
Hanover County Municipal

Weather History for KOFP - June, 2014

Change the Weather History Date:

Monday, June 9, 2014

  Actual Average Record
Temperature  
Mean Temperature 78 °F -  
Max Temperature 84 °F 83 °F 99 °F (1999)
Min Temperature 71 °F 61 °F 42 °F (1949)
Cooling Degree Days 12    
Growing Degree Days 28 (Base 50)    
Moisture  
Dew Point 66 °F    
Average Humidity 70    
Maximum Humidity 90    
Minimum Humidity 57    
Precipitation  
Precipitation 0.00 in - - ()
Sea Level Pressure  
Sea Level Pressure 29.89 in    
Wind  
Wind Speed 6 mph (South)    
Max Wind Speed 9 mph    
Max Gust Speed -    
Visibility 10 miles    
Events      
Averages and records for this station are not official NWS values.
T = Trace of Precipitation, MM = Missing Value Source: NWS Daily Summary

Daily Weather History Graph

Daily Weather History Graph

Search for Another Location

Airport or City:

Trip Planner

Search our weather history database for the weather conditions in past years. The results will help you decide how hot, cold, wet, or windy it might be!

Date:

Astronomy

Jun. 09, 2014 Rise Set
Actual Time 5:47 AM EDT 8:30 PM EDT
Civil Twilight 5:16 AM EDT 9:01 PM EDT
Nautical Twilight 4:37 AM EDT 9:40 PM EDT
Astronomical Twilight 3:54 AM EDT 10:24 PM EDT
Moon 4:52 PM EDT (6/9) 3:09 AM EDT (6/9)
Length of Visible Light 15h 44m
Length of Day
14h 42m
Waxing Gibbous, 85% of the Moon is Illuminated
Jun 9
Waxing Gibbous
Jun 13
Full
Jun 19
Last Quarter
Jun 27
New
Jul 5
First Quarter

Hourly Weather History & Observations

Time (EDT) Temp. Heat Index Dew Point Humidity Pressure Visibility Wind Dir Wind Speed Gust Speed Precip Events Conditions
12:54 AM 75.9 °F - 62.1 °F 62% 29.89 in 10.0 mi South 8.1 mph - N/A   Mostly Cloudy
1:54 AM 73.9 °F - 63.0 °F 68% 29.89 in 10.0 mi South 8.1 mph - N/A   Mostly Cloudy
2:54 AM 73.9 °F - 62.1 °F 66% 29.89 in 10.0 mi SSW 8.1 mph - N/A   Mostly Cloudy
3:54 AM 73.0 °F - 62.1 °F 68% 29.88 in 10.0 mi South 5.8 mph - N/A   Overcast
4:54 AM 73.0 °F - 62.1 °F 68% 29.88 in 10.0 mi South 5.8 mph - N/A   Overcast
5:54 AM 72.0 °F - 62.1 °F 71% 29.88 in 10.0 mi South 5.8 mph - N/A   Overcast
6:54 AM 71.1 °F - 62.1 °F 73% 29.90 in 10.0 mi South 6.9 mph - N/A   Mostly Cloudy
7:21 AM 71.1 °F - 62.1 °F 73% 29.91 in 10.0 mi South 5.8 mph - N/A   Mostly Cloudy
7:54 AM 73.0 °F - 62.1 °F 68% 29.91 in 10.0 mi South 6.9 mph - N/A   Overcast
8:54 AM 73.9 °F - 62.1 °F 66% 29.92 in 10.0 mi South 6.9 mph - N/A   Overcast
9:54 AM 73.9 °F - 62.1 °F 66% 29.93 in 10.0 mi South 6.9 mph - N/A   Overcast
11:54 AM 79.0 °F - 66.0 °F 64% 29.91 in 10.0 mi SSW 9.2 mph - N/A   Mostly Cloudy
12:50 PM 82.4 °F 84.6 °F 66.2 °F 58% 29.91 in 10.0 mi Variable 5.8 mph - N/A   Scattered Clouds
12:54 PM 82.0 °F 84.1 °F 66.0 °F 58% 29.90 in 10.0 mi Variable 5.8 mph - N/A   Scattered Clouds
1:54 PM 82.0 °F 84.5 °F 66.9 °F 60% 29.89 in 9.0 mi Variable 5.8 mph - N/A   Overcast
4:54 PM 84.9 °F 88.2 °F 68.0 °F 57% 29.87 in 10.0 mi Variable 5.8 mph - N/A   Mostly Cloudy
5:54 PM 82.9 °F 86.5 °F 69.1 °F 63% 29.87 in 10.0 mi ESE 4.6 mph - N/A   Overcast
6:54 PM 81.0 °F 84.4 °F 70.0 °F 69% 29.87 in 10.0 mi Variable 3.5 mph - N/A   Clear
7:54 PM 81.0 °F 84.1 °F 69.1 °F 67% 29.87 in 10.0 mi Variable 6.9 mph - N/A   Clear
8:54 PM 77.0 °F - 70.0 °F 79% 29.88 in 10.0 mi ESE 3.5 mph - N/A   Clear
9:45 PM 77.0 °F - 71.1 °F 82% 29.89 in 10.0 mi Calm Calm - N/A   Mostly Cloudy
9:54 PM 77.0 °F - 71.1 °F 82% 29.89 in 10.0 mi ESE 4.6 mph - N/A   Scattered Clouds
10:54 PM 75.9 °F - 71.1 °F 85% 29.89 in 9.0 mi SE 3.5 mph - N/A   Clear
11:28 PM 75.0 °F - 71.1 °F 87% 29.90 in 8.0 mi Calm Calm - N/A   Mostly Cloudy
11:54 PM 75.0 °F - 72.0 °F 90% 29.90 in 8.0 mi Variable 3.5 mph - N/A   Mostly Cloudy